Preview of NWS' New Version of Forecast
This preview is not operational and should not be used for support decisions.
Latest weather observations around

Hartford, Hartford-Brainard Airport (KHFD)

Using English Units (Switch to International System of Units)
Date/ Time (EDT) Wind (mph) Vis. (mi) Weather Sky Cond. Temp (°F) Rel. Humidity Wind Chill (°F) Heat Index (°F) Pressure Precip. (in)
Air Dwpt 6 hour Altimeter (inHg) Sea level (inHg) 1 hr 3 hr 6 hr
Max Min
Jun 18 08:53 SSW 10 10 Clear CLR 77 65     66%   78 29.97 29.97      
Jun 18 07:53 S 7 10 Clear CLR 72 64     76%   72 29.99 29.99      
Jun 18 06:53 S 9 10 Clear CLR 69 62     78%     30 30      
Jun 18 05:53 S 7 10 Clear CLR 68 61     78%     30.01 30.01      
Jun 18 04:53 S 7 10 Clear CLR 68 60     76%     30.01 30.01      
Jun 18 03:53 S 3 10 Clear CLR 67 60     79%     30.02 30.02      
Jun 18 02:53 S 6 10 Clear CLR 67 59     76%     30.03 30.03      
Jun 18 01:53 S 6 10 Clear CLR 68 59     73%     30.04 30.04      
Jun 18 00:53 S 5 10 Clear CLR 69 57     65%     30.05 30.05      
Jun 17 23:53 S 5 10 Clear CLR 69 56     63%     30.04 30.04      
Jun 17 22:53 S 6 10 Clear CLR 72 56     57%   72 30.04 30.04      
Jun 17 21:53 S 7 10 Clear CLR 74 57     56%   74 30.05 30.04      
Jun 17 20:53 S 7 10 Clear CLR 76 58     54%   76 30.04 30.03      
Jun 17 19:53 S 8 10 Clear CLR 79 57     47%   79 30.04 30.04      
Jun 17 18:53 S 9 10 Clear CLR 83 56     40%   82 30.04 30.03      
Jun 17 17:53 SSW 8 10 Clear CLR 86 55     35%   84 30.03 30.03      
Jun 17 16:53 S 9 10 Clear CLR 89 54     30%   87 30.03 30.03      
Jun 17 15:53 6 10 Clear CLR 89 53     29%   87 30.03 30.03      
Jun 17 14:53 SE 7 10 Clear CLR 88 53     30%   86 30.03 30.03      
Jun 17 13:53 ESE 3 10 Clear CLR 86 53     32%   84 30.04 30.03      
Jun 17 12:53 ESE 6 10 Clear CLR 85 55     36%   84 30.05 30.05      
Jun 17 11:53 E 6 10 Clear CLR 83 56     40%   82 30.07 30.07      
Jun 17 10:53 Calm 10 Clear CLR 80 57     45%   80 30.09 30.09      
Jun 17 09:53 NNE 5 10 Clear CLR 75 58     55%   75 30.09 30.09      
Jun 17 08:53 Calm 10 Clear CLR 72 57     59%   72 30.08 30.08      
Jun 17 07:53 Calm 10 Clear CLR 67 57     71%     30.07 30.07      
Jun 17 06:53 Calm 10 Clear CLR 62 56     80%     30.07 30.07      
Jun 17 05:53 Calm 10 Clear CLR 58 56     93%     30.05 30.05      
Jun 17 04:53 SSE 3 10 Clear CLR 59 56     90%     30.04 30.03      
Jun 17 03:53 Calm 10 Clear CLR 61 55     81%     30.03 30.03      
Jun 17 02:53 Calm 10 Clear CLR 62 55     78%     30.02 30.02      
Jun 17 01:53 Calm 10 Clear CLR 63 55     75%     30.02 30.02      
Jun 17 00:53 S 5 10 Clear CLR 64 56     75%     30.01 30.01      
Jun 16 23:53 SSE 5 10 Clear CLR 65 57     76%     30.03 30.03      
Jun 16 22:53 S 5 10 Clear CLR 66 57     73%     30.01 30.01      
Jun 16 21:53 SSE 3 10 Clear CLR 67 57     71%     30 29.99      
Jun 16 20:53 Calm 10 Clear CLR 76 53     45%   75 29.97 29.97      
Jun 16 19:53 W 7 10 Clear CLR 81 51     35%   80 29.96 29.96      
Jun 16 18:53 W 7 10 Clear CLR 82 50     33%   81 29.95 29.95      
Jun 16 17:53 NW 8 10 Clear CLR 83 51     33%   81 29.94 29.94      
Jun 16 16:53 NW 9 10 Clear CLR 83 48     30%   81 29.94 29.94      
Jun 16 15:53 NW 9 10 Clear CLR 85 49     29%   83 29.94 29.94      
Jun 16 14:53 W 10 10 Clear CLR 84 49     30%   82 29.94 29.94      
Jun 16 13:53 WNW 5 10 Clear CLR 83 49     31%   81 29.95 29.95      
Jun 16 12:53 N 9 10 Clear CLR 82 49     32%   81 29.97 29.96      
Jun 16 11:53 N 10 10 Mostly Clear FEW060 79 53     41%   78 29.98 29.98      
Jun 16 10:53 N 6 10 Clear CLR 78 54     43%   78 30 30      
Jun 16 09:53 E 3 10 Clear CLR 71 55     57%   71 30.02 30.02      
Jun 16 08:53 Calm 10 Clear CLR 68 55     63%     30.03 30.03      
Jun 16 07:53 Calm 10 Clear CLR 63 55     75%     30.04 30.04      
Jun 16 06:53 Calm 10 Clear CLR 58 55     90%     30.03 30.03      
Jun 16 05:53 Calm 10 Clear CLR 53 53     100%     30.02 30.02      
Jun 16 04:53 S 3 10 Clear CLR 54 52     93%     30.01 30.01      
Jun 16 03:53 Calm 10 Clear CLR 54 52     93%     30.01 30.01      
Jun 16 02:53 S 3 10 Clear CLR 55 53     93%     30 29.99      
Jun 16 01:53 SE 5 10 Clear CLR 56 53     90%     30 29.99      
Jun 16 00:53 S 5 10 Clear CLR 56 53     90%     29.98 29.98      
Jun 15 23:53 Calm 10 Clear CLR 57 55     93%     29.97 29.97      
Jun 15 22:53 SSE 3 10 Clear CLR 58 55     90%     29.98 29.97      
Jun 15 21:53 Calm 10 Clear CLR 60 55     83%     29.97 29.97      
Jun 15 20:53 SSE 3 10 Clear CLR 62 54     75%     29.95 29.95      
Jun 15 19:53 NNW 7 10 Clear CLR 69 52     54%     29.95 29.94      
Jun 15 18:53 N 9 10 Mostly Clear FEW048 71 53     53%   70 29.94 29.94      
Jun 15 17:53 N 10 10 Mostly Clear FEW050 71 52     51%   70 29.94 29.94      
Jun 15 16:53 NNW 8 10 Partly Cloudy SCT041 SCT055 71 53     53%   70 29.94 29.93      
Jun 15 15:53 NW 6 10 Cloudy OVC060 69 54     59%     29.95 29.95      
Jun 15 14:53 NNW 7 10 Cloudy FEW034 BKN042 OVC060 67 53     61%     29.94 29.93      
Jun 15 13:53 N 6 10 Cloudy OVC045 66 56     70%     29.93 29.92     0
Jun 15 13:13 NW 3 10 Cloudy FEW024 SCT029 OVC048 66 56     70%     29.93        
Jun 15 12:53 N 6 10 Cloudy SCT022 BKN029 OVC070 66 56     70%     29.93 29.93      
Jun 15 11:53 NNW 11 10 Cloudy BKN035 OVC060 64 56     75%     29.94 29.94 0    
Jun 15 11:11 NW 7 10 Light Rain SCT023 OVC032 62 57     84%     29.94   0    
Jun 15 10:53 NNE 7 8 Cloudy OVC025 62 57     84%     29.94 29.94 0 0  
Jun 15 09:53 Calm 10 Light Rain OVC027 62 57     84%     29.93 29.92 0    
Jun 15 09:31 NNE 3 10 Cloudy BKN027 OVC034 62 56     80%     29.93        
Jun 15 08:53 NNE 7 10 Cloudy FEW036 OVC043 62 55     78%     29.91 29.91      
Jun 15 07:53 N 7 10 Cloudy BKN036 BKN055 OVC070 63 54     72%     29.9 29.9      
May 15 04:53 S 5 4 Clear   59 58     96%     29.86 29.85      
May 14 13:53 SSE 8 10 Clear CLR 67 55     66%     29.96 29.96      
May 14 04:31 S 3 10 Cloudy BKN012 OVC028 51 48     89%     30.01        
May 12 08:53 N 3 10 Cloudy OVC055 53 37     54%     30.18 30.18      
May 12 01:53 Calm 10 Mostly Clear FEW120 55 35     47%     30.14 30.14      
May 12 00:53 NNE 5 10 Clear CLR 55 37     51%     30.15 30.14      
May 11 21:53 N 5 10 Clear CLR 62 29     28%     30.1 30.1      
May 11 15:53 N 8 10 Clear CLR 69 36     30%     29.99 29.99      
May 11 11:53 NW 13 10 Mostly Clear FEW040 64 38     38%     29.99 29.98      
Jun 11 10:53 5 10 Clear CLR 84 63     49%   85 30.01 30.01      
Jun 10 18:53   10 Clear   79 57     47%   79 29.93 29.93      
Jun 10 12:51 SW 8 10 Mostly Cloudy BKN075 82 55     40%   82 29.95        
Jun 10 08:53 E 3 10 Clear CLR 71 56     59%   71 29.97 29.97      
Jun 09 22:53 S 3 10 Clear CLR 61 55     81%     29.84 29.83      
Jun 08 01:53 Calm 10 Clear CLR 53 50     89%     30.02 30.02      
Jun 07 09:53 NNE 10 10 Cloudy OVC060 59 49     69%     29.99 29.98      
Jun 07 08:53 N 8 10 Cloudy SCT055 BKN070 OVC080 57 50     77%     29.98 29.98      
Jun 06 14:53 N 9 6 Light Rain and Fog/Mist BKN014 OVC019 51 49     92%     29.82 29.82 0    
Notice The following observation data may not be complete
Jun 06 08:11   2.5 Light Rain and Fog/Mist BKN007 OVC014          %         0    
Jun 06 07:49 N 10 2.5 Light Rain and Fog/Mist OVC012 52 48     87%     29.79   0